[[{"header":{"parameterUnit":"m.s-1","parameterCategory":1,"la1":30.2991,"la2":30.254,"lo1":-89.0895,"lo2":-89.0444,"dy":0.0017,"dx":0.0017,"nx":28,"ny":28,"refTime":"2024-07-22T21:00:00:Z","depth":0,"parameterNumber":2,"parameterNumberName":"U-component_of_WINDS"},"data":[0,0,0,0,0,0,0,0,0,0,0,0,0,0,0,0,0,0,0,0,0,0,0,0,0,0,0,0,0,0,0,0,0,0,0,0,0,0,0,0,0,0,0,0,0,0,0,0,0,0,0,0,0,0,0,0,0,0,3.2405,3.2406,0,3.2467,3.2467,3.2468,3.2455,3.2454,3.2453,3.2452,3.2514,3.2517,3.2519,0,0,0,0,0,0,0,0,0,0,0,0,0,3.2276,3.2279,3.2405,3.2406,3.2407,3.2466,3.2467,3.2468,3.2456,3.2454,3.2453,3.2452,3.2513,3.2516,3.2519,0,0,0,0,0,0,0,0,0,0,0,0,0,3.2334,3.228,3.2405,3.2408,3.2409,3.2466,3.2467,3.2468,3.2456,3.2454,3.2453,3.2451,3.2512,3.2516,3.252,3.2578,0,0,3.2532,3.2534,0,0,0,0,0,0,0,0,3.2331,3.2339,3.2407,3.2408,3.2409,3.2452,3.2444,3.2505,3.2456,3.2438,3.2452,3.245,3.2495,3.25,3.2515,3.2581,3.2584,3.2533,3.2535,3.2537,3.2538,0,0,0,0,0,0,0,3.2327,3.2336,3.2429,3.2407,3.2409,3.2406,3.2412,3.2456,3.2475,3.2439,3.2439,3.2446,3.2495,3.2511,3.2516,3.2585,3.2532,3.2536,3.2539,3.254,3.2702,3.2704,0,0,0,0,0,0,3.2322,3.2333,3.2427,3.2431,3.2365,3.2409,3.2416,3.244,3.2474,3.2478,3.2448,3.2445,3.2505,3.2512,3.2519,3.2589,3.2537,3.2541,3.2543,3.2701,3.2703,3.2705,0,0,0,0,0,0,3.232,3.2331,3.2425,3.2382,3.2394,3.2413,3.2439,3.2442,3.2458,3.2481,3.2484,3.2461,3.2504,3.2513,3.2564,3.2591,3.2542,3.2546,3.2698,3.2701,3.2704,3.2731,0,0,0,0,0,0,3.2316,3.233,3.2352,3.2383,3.2396,3.2469,3.2441,3.2444,3.2465,3.2463,3.2494,3.2497,3.2503,3.2558,3.2568,3.2596,3.2549,3.2696,3.27,3.2703,3.2728,3.2735,3.274,0,0,0,0,0,3.2311,3.2357,3.2354,3.2365,3.2425,3.2471,3.2479,3.2485,3.2467,3.249,3.2505,3.2496,3.2587,3.2563,3.2574,3.2604,3.2694,3.2699,3.2703,3.2725,3.2733,3.274,0,0,0,0,0,0,3.2329,3.2361,3.2357,3.2415,3.244,3.2469,3.2497,3.2493,3.2524,3.2521,3.2527,3.2534,3.2586,3.26,3.2573,3.2663,3.2638,3.2645,3.2651,3.2659,3.2665,3.266,3.2552,0,0,0,0,0,3.234,3.2375,3.2401,3.2449,3.2462,3.2478,3.2498,3.2501,3.2527,3.2538,3.2556,3.2582,3.2616,3.2639,3.2671,3.273,3.2737,3.2756,3.2763,3.2768,3.2773,3.2805,3.2814,3.2719,3.2719,3.2719,0,0,3.2362,3.2384,3.2406,3.2453,3.2473,3.2509,3.2487,3.2526,3.2553,3.2544,3.2593,3.2608,3.2637,3.2692,3.2717,3.2705,3.2801,3.2773,3.2777,3.278,3.2811,3.282,3.2828,3.2722,3.2721,3.2721,0,0,3.2421,3.2441,3.2483,3.2504,3.2535,3.2546,3.2556,3.2585,3.2595,3.2644,3.2639,3.267,3.2729,3.275,3.2769,3.2837,3.283,3.2847,3.2879,3.2911,3.2918,3.2925,3.2949,3.2957,3.2853,3.2853,3.2853,0,3.2444,3.2499,3.2505,3.2545,3.2566,3.2561,3.2604,3.2623,3.2663,3.2678,3.2665,3.2739,3.2758,3.2818,3.2835,3.285,3.2862,3.2843,3.2917,3.2924,3.293,3.2953,3.2962,3.2855,3.2855,3.2854,3.2854,0,3.2526,3.2564,3.2594,3.2634,3.2658,3.2699,3.2712,3.2736,3.2737,3.2749,3.2799,3.2823,3.286,3.2875,3.2876,3.2935,3.2927,3.2915,3.289,3.2941,3.2962,3.2971,3.2857,3.2857,3.2856,3.2856,0,0,3.2596,3.264,3.2651,3.2669,3.2703,3.2732,3.2773,3.2811,3.2831,3.2859,3.2893,3.2944,3.2933,3.2954,3.2958,3.2985,3.3038,3.297,3.2971,3.2982,3.3104,3.3112,3.3122,3.3034,3.3036,3.3037,3.3102,0,3.2658,3.273,3.2738,3.2803,3.2838,3.2834,3.287,3.2894,3.2907,3.2938,3.2951,3.2987,3.2971,3.2983,3.301,3.3025,3.3062,3.3021,3.3065,3.3067,3.3057,3.3134,3.3142,3.3202,3.311,3.3112,3.3113,0,3.2739,3.277,3.2839,3.2869,3.2884,3.2916,3.295,3.2981,3.3009,3.3016,3.304,3.304,3.3082,3.3056,3.3114,3.3086,3.3105,3.3115,3.3118,3.3121,3.3092,3.3139,3.3222,3.323,3.3126,3.3125,3.3124,0,3.2783,3.2842,3.2891,3.2906,3.2943,3.2965,3.2981,3.3008,3.303,3.3061,3.3075,3.311,3.3129,3.3156,3.3165,3.3146,3.3223,3.3198,3.3229,3.3229,3.3245,3.3244,3.3331,3.3258,3.3258,3.3258,3.3258,0,3.2851,3.2893,3.2911,3.2941,3.2988,3.2997,3.3043,3.3058,3.3082,3.3114,3.3113,3.3143,3.3154,3.3187,3.3194,3.3241,3.325,3.3256,3.3258,3.3256,3.3255,3.3268,3.3264,3.326,3.326,3.3259,3.3259,0,3.2908,3.2922,3.2974,3.3005,3.3014,3.3047,3.3073,3.3101,3.3114,3.3155,3.3165,3.3184,3.3222,3.3234,3.328,3.3285,3.334,3.3338,3.333,3.333,3.3361,3.3358,3.3459,3.3473,3.3391,3.3392,3.3393,0,3.2949,3.2982,3.3016,3.3038,3.3055,3.309,3.3113,3.3123,3.3147,3.3182,3.3206,3.3244,3.3275,3.3336,3.3353,3.3388,3.3387,3.342,3.3392,3.339,3.3387,3.3385,3.3388,3.3425,3.3426,3.3427,3.3427,0,3.3022,3.3028,3.3061,3.3096,3.3124,3.3152,3.318,3.3198,3.3212,3.3238,3.3278,3.3302,3.3349,3.3386,3.3422,3.3438,3.3435,3.3436,3.3445,3.3443,3.3437,3.3441,3.3344,3.3433,3.3433,3.3432,3.3432,3.3432,3.3072,3.3101,3.313,3.3166,3.3188,3.3214,3.3243,3.3259,3.3292,3.3332,3.3336,3.3378,3.3406,3.3454,3.3472,3.3505,3.3495,3.3509,3.3512,3.3515,3.3517,3.3433,3.3511,3.3511,3.3511,3.3511,3.3511,0,3.3144,3.3163,3.3197,3.3236,3.3265,3.326,3.3291,3.3315,3.3352,3.3379,3.3409,3.3455,3.3491,3.3512,3.3549,3.3571,3.3571,3.358,3.3578,3.3582,3.3523,3.3512,3.358,3.358,3.358,3.358,3.358,3.358,3.3185,3.3233,3.3243,3.3302,3.332,3.3362,3.3379,3.3403,3.3424,3.3475,3.3506,3.3519,3.3544,3.3582,3.3615,3.3621,3.3634,3.3645,3.3649,3.3593,3.3586,3.3579,3.3568,3.3648,3.3648,3.3705,3.3705,3.3706]},{"header":{"parameterUnit":"m.s-1","parameterCategory":1,"la1":30.2991,"la2":30.254,"lo1":-89.0895,"lo2":-89.0444,"dy":0.0017,"dx":0.0017,"nx":28,"ny":28,"refTime":"2024-07-22T21:00:00:Z","depth":0,"parameterNumber":3,"parameterNumberName":"V-component_of_WINDS"},"data":[0,0,0,0,0,0,0,0,0,0,0,0,0,0,0,0,0,0,0,0,0,0,0,0,0,0,0,0,0,0,0,0,0,0,0,0,0,0,0,0,0,0,0,0,0,0,0,0,0,0,0,0,0,0,0,0,0,0,1.3978,1.3977,0,1.3884,1.3883,1.3881,1.3807,1.3807,1.3806,1.3805,1.3704,1.3702,1.37,0,0,0,0,0,0,0,0,0,0,0,0,0,1.4093,1.4091,1.3979,1.3977,1.3976,1.3884,1.3882,1.3881,1.3808,1.3807,1.3806,1.3805,1.3705,1.3702,1.37,0,0,0,0,0,0,0,0,0,0,0,0,0,1.4025,1.409,1.3979,1.3928,1.3923,1.3884,1.3882,1.3881,1.3808,1.3807,1.3806,1.3805,1.3705,1.3702,1.3699,1.3701,0,0,1.369,1.3689,0,0,0,0,0,0,0,0,1.4029,1.4021,1.3937,1.3932,1.3926,1.3856,1.3885,1.382,1.3808,1.3851,1.3805,1.3804,1.3755,1.3748,1.3732,1.3697,1.3692,1.369,1.3688,1.3686,1.3686,0,0,0,0,0,0,0,1.4034,1.4024,1.3941,1.3936,1.3929,1.3909,1.3899,1.3873,1.381,1.3847,1.3842,1.3832,1.3752,1.3735,1.3729,1.3691,1.369,1.3687,1.3685,1.3684,1.3652,1.3653,0,0,0,0,0,0,1.4047,1.4029,1.3944,1.3938,1.3976,1.3908,1.3896,1.388,1.381,1.3799,1.3833,1.3829,1.3741,1.3733,1.3725,1.3723,1.3686,1.3684,1.3682,1.3651,1.3652,1.3654,0,0,0,0,0,0,1.4049,1.404,1.3948,1.3982,1.3969,1.3907,1.3889,1.3878,1.3862,1.3799,1.3787,1.3828,1.374,1.373,1.3708,1.3719,1.3682,1.3679,1.365,1.3652,1.3653,1.3719,0,0,0,0,0,0,1.4053,1.4041,1.4042,1.3983,1.3967,1.3933,1.389,1.3877,1.3857,1.3851,1.3791,1.378,1.3738,1.3713,1.3705,1.3714,1.3677,1.3649,1.3651,1.3652,1.3716,1.3723,1.3729,0,0,0,0,0,1.4057,1.4063,1.4043,1.4033,1.3967,1.3934,1.3925,1.3878,1.3858,1.3858,1.3818,1.3782,1.3719,1.3712,1.3702,1.371,1.3648,1.365,1.3652,1.3713,1.3721,1.3729,0,0,0,0,0,0,1.4124,1.4055,1.4031,1.4018,1.3983,1.3922,1.392,1.3888,1.3856,1.3852,1.3793,1.378,1.3765,1.3735,1.3728,1.3708,1.3679,1.3679,1.3728,1.3736,1.3742,1.3749,1.3674,0,0,0,0,0,1.4138,1.4118,1.4058,1.4052,1.4036,1.3982,1.3965,1.3932,1.3892,1.3877,1.3835,1.3797,1.3768,1.375,1.3721,1.3712,1.3697,1.3712,1.3719,1.3724,1.3725,1.3718,1.3724,1.3661,1.3661,1.3661,0,0,1.4164,1.4124,1.4115,1.4065,1.4033,1.4013,1.3969,1.3949,1.3933,1.3873,1.385,1.3819,1.3772,1.3757,1.3748,1.3732,1.374,1.3727,1.3732,1.373,1.3721,1.3727,1.3732,1.3662,1.3662,1.3662,0,0,1.4203,1.4171,1.4163,1.4134,1.4088,1.4052,1.405,1.3994,1.3971,1.3948,1.3903,1.3882,1.3835,1.3803,1.3781,1.3811,1.3776,1.3802,1.3836,1.383,1.3835,1.3839,1.3849,1.3853,1.3804,1.3804,1.3804,0,1.4242,1.4211,1.4163,1.4146,1.4125,1.4072,1.4063,1.4036,1.3982,1.3968,1.3951,1.3891,1.3856,1.3833,1.384,1.3824,1.382,1.3808,1.3838,1.3842,1.3845,1.3854,1.3858,1.3807,1.3807,1.3806,1.3806,0,1.4261,1.424,1.4239,1.4191,1.417,1.4157,1.4106,1.409,1.406,1.4025,1.4003,1.3959,1.392,1.3912,1.3881,1.3885,1.3876,1.385,1.3818,1.3855,1.3862,1.3865,1.3812,1.3811,1.381,1.3809,0,0,1.4337,1.4264,1.4264,1.4242,1.4188,1.417,1.4155,1.4119,1.4106,1.4071,1.4057,1.4018,1.3994,1.3969,1.3934,1.3929,1.3955,1.3903,1.3901,1.3913,1.3956,1.3975,1.398,1.3932,1.3933,1.3933,1.3959,0,1.4367,1.4339,1.4296,1.4281,1.4261,1.4211,1.4197,1.4162,1.413,1.4108,1.4071,1.4045,1.4015,1.4,1.3993,1.3953,1.3962,1.3951,1.3917,1.3916,1.3929,1.3984,1.4004,1.4031,1.3962,1.3962,1.3963,0,1.4397,1.4367,1.4351,1.43,1.429,1.4279,1.4242,1.4222,1.4181,1.4158,1.4132,1.4094,1.4075,1.4048,1.402,1.4014,1.3997,1.3976,1.3976,1.397,1.3941,1.3979,1.4039,1.4043,1.3967,1.3966,1.3966,0,1.4454,1.441,1.4394,1.4377,1.4317,1.431,1.4284,1.4243,1.4224,1.4192,1.4179,1.4144,1.4125,1.4099,1.4053,1.4038,1.403,1.3999,1.4009,1.401,1.4008,1.4009,1.4066,1.4,1.4,1.4,1.4,0,1.4491,1.4483,1.4419,1.441,1.4399,1.435,1.434,1.4309,1.4273,1.4256,1.4211,1.4195,1.4136,1.4114,1.4078,1.406,1.4052,1.4032,1.4022,1.4035,1.4038,1.4023,1.4019,1.4001,1.4001,1.4,1.4,0,1.4552,1.4509,1.4489,1.4435,1.4421,1.4416,1.4368,1.4357,1.4323,1.4302,1.4294,1.424,1.4211,1.4164,1.412,1.4096,1.4085,1.4069,1.4099,1.4093,1.4105,1.4105,1.4154,1.4157,1.4091,1.4091,1.4092,0,1.4578,1.4571,1.4517,1.4503,1.448,1.4458,1.4439,1.439,1.4372,1.4326,1.432,1.4288,1.426,1.4217,1.4173,1.4139,1.4122,1.4142,1.4116,1.413,1.4121,1.4122,1.4121,1.4147,1.4148,1.4149,1.4149,0,1.4629,1.4609,1.4584,1.4552,1.4532,1.4504,1.4473,1.4464,1.4409,1.439,1.4362,1.434,1.4297,1.4266,1.4227,1.4199,1.4165,1.4158,1.4158,1.4171,1.4189,1.4179,1.4114,1.4157,1.4156,1.4155,1.4155,1.4155,1.4672,1.4664,1.4625,1.4599,1.4572,1.4545,1.4532,1.4497,1.4473,1.4435,1.4408,1.4381,1.4341,1.4285,1.426,1.4237,1.4221,1.4222,1.4222,1.4223,1.4228,1.4194,1.423,1.4229,1.4229,1.4229,1.4229,0,1.472,1.4693,1.467,1.463,1.461,1.4582,1.4548,1.4532,1.4509,1.4476,1.445,1.4417,1.4387,1.4341,1.4307,1.4298,1.4281,1.4291,1.429,1.4284,1.4244,1.4247,1.4305,1.4305,1.4305,1.4305,1.4305,1.4305,1.4742,1.4727,1.4702,1.4673,1.4645,1.462,1.4603,1.4577,1.455,1.4516,1.4492,1.4463,1.4424,1.4388,1.4359,1.4346,1.4335,1.4349,1.4332,1.4294,1.4287,1.428,1.4283,1.4347,1.4348,1.4374,1.4374,1.4374]}]]